RH
41 41 40 37 34 34 33 34 36 38 39 41 48 44 37 35 33 32 33 34 35 36 37 38 37 35 32 29 26 23 21 19 18 16 16 14 14 13
37 38 36 36 36 37 37 39 40 41 44 53 54 45 41 40 39 38 39 39 40 41 41 40 38 35 30 27 24 22 20 19 18 17 16 15 14 14
36 37 37 38 39 42 54 50 46 48 49 50 49 48 46 46 46 45 44 44 44 44 42 39 34 31 28 25 23 22 20 19 17 16 15 14 14 13
79 95 92 92 93 95 92 86 76 71 62 57 52 52 52 52 51 49 49 48 48 45 40 35 31 28 26 23 21 20 18 17 16 14 14 13 12 12
96 96 95 95 95 95 94 92 95 90 74 58 55 56 56 56 53 53 53 51 46 41 36 32 28 26 23 21 19 18 16 15 14 13 13 12 12 11
96 96 95 96 96 93 96 96 93 84 75 62 60 60 59 59 57 56 54 50 45 38 34 30 27 24 22 20 18 16 15 14 13 12 11 10 9 9
96 97 96 96 96 96 96 96 96 95 90 84 76 76 68 63 61 57 54 50 44 38 33 30 26 23 21 19 17 15 14 12 12 10 9 8 7 6
96 96 96 96 95 95 96 95 94 94 94 93 91 82 72 66 64 60 56 52 46 40 34 30 26 24 21 18 16 13 12 10 8 8 7 6 6 5
97 98 97 97 97 96 96 95 94 94 92 91 86 79 73 67 63 60 57 52 46 40 35 31 27 24 19 15 11 9 8 7 7 7 7 7 7 8
96 96 97 98 97 97 96 96 96 96 96 96 86 76 68 64 62 61 58 52 46 41 36 32 26 20 14 12 9 8 8 8 9 10 10 11 12 12
96 96 94 94 97 98 97 96 96 95 96 95 90 85 78 72 69 66 60 54 48 42 34 26 19 15 13 11 10 10 11 12 13 14 15 16 17 18
100 100 98 97 96 98 97 98 94 91 91 85 82 80 78 76 74 65 58 53 46 42 29 24 20 19 17 16 16 17 18 19 20 20 20 21 22 22
98 98 98 100 100 99 99 97 94 99 94 89 79 75 75 74 75 67 54 42 35 29 28 32 28 28 29 26 27 28 28 28 29 28 28 28 26 25
99 99 98 98 97 98 100 99 99 100 99 94 84 79 78 78 76 69 55 47 43 38 34 58 53 50 47 42 37 38 39 38 36 35 33 32 29 26
90 87 83 81 83 88 90 90 86 81 78 81 82 82 80 78 78 73 67 66 66 62 53 66 76 68 71 58 51 48 46 44 41 38 36 32 30 27
20 19 19 18 19 19 20 21 21 28 28 39 63 75 96 100 98 94 90 83 83 71 69 74 91 95 82 70 60 56 52 47 42 37 34 31 28 27
31 27 25 26 26 29 35 42 56 63 70 80 90 94 100 100 100 100 99 97 99 93 88 90 100 100 95 82 71 61 55 46 40 37 38 34 28 26
100 94 78 84 85 84 71 70 75 85 100 100 100 100 100 98 97 100 100 100 100 100 98 96 99 100 99 81 73 65 60 53 44 40 40 37 29 25
100 100 100 100 100 92 85 77 85 84 97 100 97 100 100 98 100 100 99 100 99 98 99 100 100 100 93 77 68 75 61 47 46 36 33 32 35 24
99 93 91 88 98 100 90 88 80 96 96 91 97 100 100 100 100 100 100 100 100 99 97 99 96 91 82 78 64 50 48 40 38 37 37 46 61 56
91 87 81 78 81 87 91 88 86 95 92 100 98 97 99 91 94 98 97 100 100 98 91 85 85 88 84 78 58 40 31 38 50 68 76 85 73 66
74 72 71 67 68 76 80 86 83 81 89 95 90 83 89 98 99 98 96 93 93 91 86 77 73 76 59 45 44 44 48 59 76 89 96 93 87 84
80 83 86 84 79 70 64 65 74 81 80 78 81 93 97 92 82 79 77 78 78 78 80 72 56 46 46 60 98 94 80 75 78 68 68 75 82 81
Wind_Speed
38 38 38 38 37 37 37 36 36 36 36 36 37 38 38 39 40 39 39 38 39 40 40 41 42 43 43 43 42 41 41 42 42 41 41 42 42 41
40 39 39 39 39 39 39 38 39 38 39 39 39 39 41 41 42 42 42 41 42 42 44 45 45 45 43 42 42 41 43 43 43 43 43 44 44 44
42 41 41 40 41 41 41 41 41 42 43 42 40 40 41 42 42 44 44 44 44 46 46 46 45 44 43 43 43 43 46 45 45 45 45 47 47 49
47 49 49 49 47 46 46 45 44 46 45 43 41 41 42 42 43 44 44 46 47 46 46 45 43 43 44 44 44 46 47 48 46 46 48 49 49 50
49 49 49 48 48 48 49 48 47 48 46 45 45 43 42 41 45 45 46 48 48 47 45 44 44 44 45 46 46 47 48 49 48 48 49 52 53 53
49 53 51 50 50 51 50 48 46 46 47 48 48 46 46 44 46 47 48 48 48 47 47 47 46 46 47 47 48 48 49 51 51 52 52 54 56 56
55 54 52 51 51 51 50 49 49 51 51 51 51 50 49 47 46 48 49 48 47 48 47 47 48 49 50 50 50 50 52 53 54 55 56 56 56 56
54 54 53 54 56 56 55 55 54 53 52 52 52 52 51 50 49 49 50 51 52 50 47 48 49 50 50 52 52 53 53 54 55 56 56 55 55 55
57 58 59 58 56 56 55 55 54 54 54 53 54 53 52 50 52 53 53 53 52 51 52 52 51 52 52 52 51 52 53 53 53 53 53 54 54 54
57 56 56 55 56 56 55 54 54 54 53 54 57 56 54 54 54 55 55 56 56 54 53 58 55 52 49 51 50 50 50 51 51 51 52 53 54 55
56 56 56 56 55 53 55 56 55 56 54 54 54 55 57 57 57 58 58 58 58 56 55 56 54 53 52 50 48 46 47 48 50 51 52 53 53 54
54 54 54 55 55 54 55 57 59 57 56 56 57 57 58 59 60 60 60 60 59 59 56 55 51 51 53 51 48 46 46 47 49 51 52 53 54 55
56 57 57 56 57 58 58 59 60 59 60 61 62 61 60 60 60 59 57 57 58 58 52 50 50 48 48 49 47 48 47 48 49 51 52 52 52 54
59 60 61 61 60 60 60 61 60 60 61 64 65 65 63 60 58 55 55 55 54 53 50 48 48 46 47 49 49 47 47 49 50 51 52 53 53 53
56 57 57 58 58 60 60 60 59 58 59 60 60 61 58 56 53 51 51 50 49 49 48 46 44 44 44 47 48 47 49 51 52 53 53 54 54 55
43 44 45 47 47 49 49 52 52 50 51 51 51 50 49 49 48 47 48 49 50 50 46 44 42 42 45 46 47 49 49 52 51 52 54 54 54 55
34 36 36 36 37 37 38 38 40 42 42 41 40 41 43 45 47 43 42 43 42 43 45 46 47 48 47 46 48 49 50 50 48 50 53 56 56 54
23 27 26 28 29 27 23 25 31 37 41 43 43 41 43 43 40 42 47 49 49 51 52 50 49 47 45 45 45 46 46 48 49 51 53 54 54 49
29 32 34 36 33 32 33 34 29 27 30 34 40 48 48 48 44 46 50 49 50 49 48 46 42 40 43 46 43 43 48 48 49 49 46 46 48 46
36 39 41 43 43 41 35 31 30 36 34 30 31 33 27 31 42 48 50 47 44 41 38 37 38 38 40 45 51 48 41 43 42 44 44 43 45 46
40 41 41 43 46 46 45 42 39 32 28 34 35 33 35 32 30 29 30 30 32 34 36 36 35 38 44 46 49 44 35 31 35 40 42 46 49 50
36 37 37 39 40 41 42 43 42 39 38 36 34 31 29 30 30 30 30 30 31 34 37 38 37 38 37 40 40 39 36 32 31 37 42 46 50 55
26 26 27 29 31 33 36 37 37 38 37 37 38 38 36 33 31 33 35 37 38 38 37 33 31 31 31 32 34 37 37 38 40 41 43 41 45 48
Wind_Direction
240 242 244 245 246 247 248 249 250 253 256 259 264 266 266 267 267 267 267 269 271 273 276 278 281 283 283 281 279 277 276 274 274 274 275 274 275 275
239 241 242 244 245 247 249 250 252 253 255 258 260 261 263 263 265 268 269 271 273 276 278 280 281 281 280 279 278 277 276 275 276 276 276 277 277 277
235 237 240 241 242 245 249 252 253 255 256 257 257 258 260 262 264 266 268 271 273 275 276 278 279 279 280 280 280 279 278 279 278 280 280 278 277 276
239 242 243 244 246 248 248 250 253 255 258 259 260 261 261 264 266 269 272 274 275 277 279 280 280 280 280 280 281 280 281 281 283 281 279 279 277 275
240 241 243 244 245 248 249 251 254 257 260 263 263 263 264 266 269 271 273 275 278 279 279 279 279 280 281 281 281 281 282 283 281 279 279 277 276 275
240 243 246 247 248 249 253 254 255 257 260 263 264 265 266 266 267 269 270 273 275 278 279 280 282 282 283 283 283 282 282 282 280 278 275 274 273 273
244 247 249 250 251 254 254 254 257 257 257 260 264 266 267 268 268 269 270 271 271 274 278 282 284 285 286 286 285 283 280 279 277 276 274 272 271 271
249 250 250 253 258 259 259 260 261 261 261 262 264 266 269 271 272 271 270 272 273 274 277 279 283 283 284 284 282 280 279 277 275 273 271 271 270 271
253 254 256 258 260 262 263 264 264 265 265 264 264 266 269 271 273 274 273 273 275 279 282 281 282 284 283 281 278 276 274 272 271 270 270 270 271 271
257 257 258 259 260 261 261 262 263 264 264 266 269 269 269 271 272 273 275 276 279 281 282 284 285 283 278 276 273 270 269 268 268 269 269 270 271 271
256 256 257 258 257 259 262 262 261 262 262 265 268 271 274 275 275 275 276 279 279 281 283 284 284 282 279 275 272 269 267 265 265 266 267 268 270 271
256 257 258 260 260 260 261 263 264 264 266 265 263 265 268 271 274 276 279 279 279 281 281 278 277 276 275 273 273 268 265 265 267 267 268 270 271 273
259 259 259 259 260 261 262 263 264 266 266 267 267 266 266 267 270 273 274 274 275 276 276 273 272 272 273 275 273 274 273 271 270 269 270 271 273 275
260 261 261 262 263 264 264 265 266 268 269 271 270 269 268 266 266 267 267 266 265 268 268 270 274 275 274 272 273 273 274 275 276 276 276 275 274 275
263 265 266 266 266 265 265 266 266 265 265 265 267 269 269 268 266 261 258 260 262 262 264 268 270 269 271 274 277 276 278 278 278 279 279 279 282 283
267 267 266 266 266 266 264 264 262 260 259 260 261 263 263 264 263 262 261 261 263 263 263 262 268 275 278 279 279 277 274 275 277 279 282 282 282 282
268 266 266 266 266 264 262 260 261 261 259 258 259 259 258 258 261 265 269 269 267 267 268 271 275 277 277 276 275 276 276 278 280 282 283 283 283 284
276 279 274 270 267 263 258 257 255 253 253 255 256 254 258 263 263 257 258 258 258 262 267 271 274 276 274 273 274 278 281 283 283 284 283 284 284 283
249 247 254 264 264 262 261 260 258 257 253 252 253 251 253 257 254 257 264 265 266 269 272 273 273 272 274 276 278 279 280 282 284 282 283 282 286 285
251 247 245 247 253 258 259 258 259 255 255 264 262 260 257 261 258 259 263 267 269 269 268 266 269 274 280 282 281 280 284 286 285 286 287 288 285 286
250 251 250 250 252 256 259 260 256 257 260 253 254 255 267 272 266 265 265 265 268 270 271 273 275 276 279 281 279 283 282 276 284 288 291 290 292 294
256 258 258 257 256 256 258 260 262 261 255 258 263 263 261 263 262 262 264 267 268 271 275 277 279 280 279 278 282 287 289 289 284 283 286 291 296 295
266 263 262 262 260 259 257 257 257 257 258 258 257 258 263 265 266 267 270 276 278 277 278 278 277 274 275 278 285 289 292 293 293 291 291 291 291 292